This is the latest recevied weather packets stored in our database for station/object Kisslegg. If no packets are shown the sender has not sent any weather packets the latest 10 day(s).
| Time | Temp. | Humidity | Pressure | Rain* | Wind** | Luminosity | Snow |
|---|---|---|---|---|---|---|---|
| 1777876331 | 13.89° C | 72% | 1013.3 hPa | 0 mm | - | - | - |
| 1777874532 | 13.33° C | 67% | 1013.3 hPa | 0 mm | - | - | - |
| 1777872731 | 12.78° C | 71% | 1013.3 hPa | 0 mm | - | - | - |
| 1777870930 | 11.67° C | 73% | 1013.2 hPa | 0 mm | - | - | - |
| 1777869131 | 11.11° C | 78% | 1013.4 hPa | 0 mm | - | - | - |
| 1777867331 | 11.11° C | 79% | 1013.3 hPa | 0 mm | - | - | - |
| 1777865531 | 11.11° C | 78% | 1013.7 hPa | 0 mm | - | - | - |
| 1777863732 | 11.11° C | 78% | 1013.9 hPa | 0 mm | - | - | - |
| 1777861931 | 11.67° C | 77% | 1013.9 hPa | 0 mm | - | - | - |
| 1777860132 | 11.67° C | 77% | 1013.7 hPa | 0 mm | - | - | - |
| 1777858331 | 11.67° C | 76% | 1013.7 hPa | 0 mm | - | - | - |
| 1777856531 | 11.67° C | 77% | 1013.9 hPa | 0 mm | - | - | - |
| 1777854730 | 11.67° C | 77% | 1014.2 hPa | 0 mm | - | - | - |
| 1777852928 | 11.67° C | 74% | 1014.3 hPa | 0 mm | - | - | - |
| 1777851129 | 11.67° C | 72% | 1014.4 hPa | 0 mm | - | - | - |
| 1777849329 | 12.22° C | 72% | 1014.4 hPa | 0 mm | - | - | - |
| 1777847530 | 12.22° C | 72% | 1014.4 hPa | 0 mm | - | - | - |
| 1777845732 | 12.22° C | 70% | 1014.1 hPa | 0 mm | - | - | - |
| 1777843930 | 12.78° C | 68% | 1013.9 hPa | 0 mm | - | - | - |
| 1777842131 | 13.33° C | 67% | 1013.7 hPa | 0 mm | - | - | - |
| 1777840329 | 13.89° C | 64% | 1013.4 hPa | 0 mm | - | - | - |
| 1777838531 | 14.44° C | 61% | 1013.1 hPa | 0 mm | - | - | - |
| 1777836730 | 15° C | 60% | 1012.8 hPa | 0 mm | - | - | - |
| 1777834930 | 15.56° C | 57% | 1012.1 hPa | 0 mm | - | - | - |
| 1777833130 | 16.67° C | 55% | 1012.1 hPa | 0 mm | - | - | - |
* Rain since midnight (hover to see other rain measurements)
** Current wind speed in m/s (hover to see current wind gust speed)